Location: Hradec Kralove
(50.2170°N, 15.8330°E)
Time: 18:26:22
(UTC+01:00)

ISS - Visible Passes

Search period start: 17 February 2026 00:00
Search period end: 27 February 2026 00:00
Orbit: 413 x 428 km, 51.6° (Epoch: 17 February)

Date Brightness Start Highest point End Pass type
(mag) Time Alt. Az. Time Alt. Az. Time Alt. Az.
17 Feb -0.6 04:06:34 12° ESE 04:06:34 12° ESE 04:07:06 10° ESE visible
17 Feb -3.3 05:39:34 20° SW 05:41:39 56° SSE 05:44:56 10° ENE visible
18 Feb -2.8 04:54:28 40° SSE 04:54:35 40° SSE 04:57:45 10° E visible
19 Feb -1.0 04:09:16 18° E 04:09:16 18° E 04:10:30 10° E visible
19 Feb -3.8 05:42:15 24° WSW 05:44:09 87° NNW 05:47:31 10° ENE visible
20 Feb -3.8 04:56:58 76° SSE 04:56:59 76° SSE 05:00:20 10° ENE visible
21 Feb -1.4 04:11:38 24° E 04:11:38 24° E 04:13:08 10° ENE visible
21 Feb -3.7 05:44:36 21° W 05:46:40 68° N 05:50:00 10° E visible
22 Feb -3.9 04:59:13 70° NW 04:59:25 74° N 05:02:46 10° ENE visible
23 Feb -1.7 04:13:47 28° ENE 04:13:47 28° ENE 04:15:32 10° ENE visible
23 Feb -3.6 05:46:46 18° WNW 05:49:08 69° N 05:52:28 10° E visible
24 Feb -3.7 05:01:19 54° NW 05:01:50 66° N 05:05:10 10° E visible
25 Feb -2.0 04:15:51 33° ENE 04:15:51 33° ENE 04:17:52 10° E visible
25 Feb -3.8 05:48:49 15° WNW 05:51:28 88° SSW 05:54:49 10° ESE visible
26 Feb -0.3 03:30:23 11° ENE 03:30:23 11° ENE 03:30:34 10° ENE visible
26 Feb -3.8 05:03:21 48° WNW 05:04:10 78° NNE 05:07:31 10° E visible
